Flag for U.S.A. Weather past 2 weeks in Plano, Texas, U.S.A.

Now
75 °F

Sunny.


Feels Like: 77 °F
Forecast: 65 / 88 °F
Wind: 8 mph from Southeast

Location: McKinney Municipal Airport

Current Time: Oct 24, 2014 at 7:18:13 PM

Latest Report: Oct 24, 2014 at 6:53 PM


Visibility: 10 mi

Pressure: 30.07 "Hg

Humidity: 60%

Dew point: 60 °F

Location of PlanoLocation

Historic Weather in Plano — Graph

°F

Plano temperature yesterday

Maximum temperature yesterday: 76 °F (at 2:53 PM)
Minimum temperature yesterday: 60 °F (at 7:53 AM)
Average temperature yesterday: 66 °F

Past Weeks' High & Low Weather Summary

 TemperatureHumidityPressure
High90 °F (Oct 10, 3:53 PM)100% (Oct 12, 8:53 PM)30.20 "Hg (Oct 12, 8:53 PM)
Low47 °F (Oct 15, 6:53 AM)22% (Oct 16, 2:53 PM)29.56 "Hg (Oct 13, 1:53 AM)
Average66 °F70%30.00 "Hg
* Reported Oct 9 5:53 PM — Oct 24 5:53 PM, Plano, Weather by CustomWeather, © 2014

Note: Actual official high and low records may vary slightly from our data, if they occured in-between our weather recording intervals... More about our weather records

Advertising

Plano weather history for previous 24 hours

 ConditionsComfort  
Time TempWeatherWind HumidityBarometerVisibility
5:53 PM
Oct 24
80 °FSunny.9 mph51%30.06 "Hg10 mi
4:53 PM82 °FSunny.8 mph48%30.07 "Hg10 mi
3:53 PM81 °FSunny.8 mph47%30.08 "Hg10 mi
2:53 PM80 °FSunny.13 mph49%30.08 "Hg10 mi
1:53 PM78 °FSunny.10 mph50%30.11 "Hg10 mi
12:53 PM76 °FSunny.10 mph50%30.14 "Hg10 mi
11:53 AM74 °FSunny.13 mph52%30.17 "Hg10 mi
10:53 AM70 °FSunny.10 mph57%30.18 "Hg10 mi
9:53 AM66 °FSunny.13 mph68%30.18 "Hg10 mi
8:53 AM62 °FPassing clouds.8 mph83%30.16 "Hg10 mi
7:53 AM57 °FPassing clouds.3 mph93%30.16 "Hg9 mi
6:53 AM58 °FPassing clouds.No wind90%30.14 "Hg10 mi
5:53 AM58 °FPassing clouds.No wind90%30.14 "Hg10 mi
4:53 AM58 °FClear.3 mph90%30.13 "Hg10 mi
3:53 AM59 °FClear.3 mph87%30.12 "Hg10 mi
2:53 AM57 °FClear.3 mph93%30.12 "Hg10 mi
1:53 AM60 °FClear.3 mph83%30.12 "Hg10 mi
12:53 AM61 °FClear.5 mph83%30.12 "Hg10 mi
11:53 PM
Oct 23
62 °FClear.3 mph80%30.12 "Hg10 mi
10:53 PM63 °FClear.3 mph81%30.12 "Hg10 mi
9:53 PM65 °FClear.6 mph76%30.11 "Hg10 mi
8:53 PM66 °FClear.6 mph73%30.10 "Hg10 mi
7:53 PM68 °FClear.7 mph70%30.09 "Hg10 mi
Weather by CustomWeather, © 2014

See weather overviewHow to use our weather pages